This is the latest recevied weather packets stored in our database for station/object KE4EST. If no packets are shown the sender has not sent any weather packets the latest 10 day(s).
| Time | Temp. | Humidity | Pressure | Rain* | Wind** | Luminosity | Snow |
|---|---|---|---|---|---|---|---|
| 1777474489 | 17.22° C | 96% | 1015 hPa | 0 mm | - | 46 W/m² | - |
| 1777474186 | 17.22° C | 95% | 1015 hPa | 0 mm | - | 62 W/m² | - |
| 1777473884 | 17.22° C | 94% | 1015.2 hPa | 0 mm | - | 58 W/m² | - |
| 1777473582 | 17.22° C | 96% | 1015.1 hPa | 0 mm | - | 114 W/m² | - |
| 1777473277 | 16.67° C | 96% | 1015 hPa | 0 mm | - | 150 W/m² | - |
| 1777472973 | 17.22° C | 98% | 1014.9 hPa | 0 mm | - | 138 W/m² | - |
| 1777472670 | 16.67° C | 99% | 1015.1 hPa | 0 mm | - | 148 W/m² | - |
| 1777472366 | 16.11° C | 99% | 1015 hPa | 0 mm | - | 116 W/m² | - |
| 1777472065 | 16.11° C | 99% | 1015 hPa | 0 mm | - | 53 W/m² | - |
| 1777471759 | 16.11° C | 99% | 1015.1 hPa | 0 mm | - | 44 W/m² | - |
| 1777471456 | 16.11° C | 99% | 1015 hPa | 0 mm | - | 35 W/m² | - |
| 1777471153 | 16.11° C | 99% | 1015.3 hPa | 0 mm | - | 29 W/m² | - |
| 1777470850 | 16.11° C | 99% | 1014.9 hPa | 0 mm | - | 34 W/m² | - |
| 1777470547 | 16.11° C | 99% | 1014.7 hPa | 0 mm | - | 41 W/m² | - |
| 1777470243 | 16.11° C | 99% | 1014.8 hPa | 0 mm | - | 26 W/m² | - |
| 1777469938 | 16.11° C | 99% | 1014.9 hPa | 0 mm | - | 17 W/m² | - |
| 1777469634 | 16.11° C | 99% | 1015 hPa | 0 mm | - | 21 W/m² | - |
| 1777469330 | 16.11° C | 99% | 1015 hPa | 0 mm | - | 33 W/m² | - |
| 1777469026 | 15.56° C | 99% | 1015 hPa | 0 mm | - | 33 W/m² | - |
| 1777468720 | 16.11° C | 99% | 1015.1 hPa | 0 mm | - | 32 W/m² | - |
| 1777468417 | 16.11° C | 99% | 1015.2 hPa | 0 mm | - | 58 W/m² | - |
| 1777468113 | 16.11° C | 99% | 1015.1 hPa | 0 mm | - | 85 W/m² | - |
| 1777467810 | 16.11° C | 99% | 1015.1 hPa | 0 mm | - | 137 W/m² | - |
| 1777467505 | 15.56° C | 99% | 1015.2 hPa | 0 mm | - | 89 W/m² | - |
| 1777467201 | 15.56° C | 99% | 1015.4 hPa | 0 mm | - | 68 W/m² | - |
* Rain latest hour (hover to see other rain measurements)
** Current wind speed in m/s (hover to see current wind gust speed)